Location: Kerentrech
(47.7567°N, 3.3595°W)
Time: 11:32:11
(UTC+00:00)

STARLINK-1190 - Pass Details

Date: 17 February 2020
Orbit: 553 x 556 km, 53.0° (Epoch: 09 April)

Event Time Altitude Azimuth Distance (km) Brightness Sun altitude
Exits shadow 05:09:25 40° 343° (NNW) 826 4.4 -22.1°
Drops below altitude 10° 05:13:39 10° 65° (ENE) 1,841 7.3 -21.4°
Enters shadow 06:09:35 -72° 270° (W) 12,678 10.4 -12.0°
Maximum altitude 06:49:56 49° 15° (NNE) 719 4.3 -5.2°
